Location: ????
(55.5675°N, 37.6272°E)
Time: 18:16:21
(UTC+00:00)

Cosmos 304 Rocket - Pass Details

Date: 14 April 2026
Orbit: 668 x 676 km, 74.0° (Epoch: 15 May)

Event Time Altitude Azimuth Distance (km) Brightness Sun altitude
Rises 21:05:18 0° 329° (NNW) 3,033 8.2 -24.6°
Reaches altitude 10° 21:07:38 10° 325° (NW) 2,116 7.1 -24.6°
Enters shadow 21:12:03 52° 260° (W) 840 4.1 -24.7°
